Weather History for Patuxent River, MD

Change the Weather History Date:

Thursday, March 7, 2013

  Actual Average Record
Temperature  
Mean Temperature 44 °F -  
Max Temperature 50 °F 49 °F 73 °F (1987)
Min Temperature 39 °F 32 °F 19 °F (1986)
Degree Days  
Heating Degree Days 20    
Moisture  
Dew Point 27 °F    
Average Humidity 53    
Maximum Humidity 65    
Minimum Humidity 38    
Precipitation  
Precipitation 0.00 in - - ()
Sea Level Pressure  
Sea Level Pressure 30.05 in    
Wind  
Wind Speed 17 mph (NW)    
Max Wind Speed 21 mph    
Max Gust Speed 32 mph    
Visibility 10 miles    
Events      
Averages and records for this station are not official NWS values.
T = Trace of Precipitation, MM = Missing Value Source: NWS Daily Summary

Daily Weather History Graph

Daily Weather History Graph

Search for Another Location

Airport:

Trip Planner

Search our weather history database for the weather conditions in past years. The results will help you decide how hot, cold, wet, or windy it might be!

Date:

Astronomy

Mar. 07, 2013 Rise Set
Actual Time 6:28 AM EST 6:05 PM EST
Civil Twilight 6:02 AM EST 6:31 PM EST
Nautical Twilight 5:31 AM EST 7:02 PM EST
Astronomical Twilight 5:00 AM EST 7:32 PM EST
Moon 3:23 AM EST (3/7) 1:53 PM EST (3/7)
Length of Visible Light 12h 29m
Length of Day
11h 36m
Waning Crescent, 20% of the Moon is Illuminated
Mar 7
Waning Crescent
Mar 11
New
Mar 19
First Quarter
Mar 27
Full
Apr 3
Last Quarter

Hourly Weather History & Observations

Time (EST) Temp. Windchill Dew Point Humidity Pressure Visibility Wind Dir Wind Speed Gust Speed Precip Events Conditions
12:52 AM 41.0 °F 32.2 °F 30.0 °F 65% 29.93 in 10.0 mi NW 18.4 mph 31.1 mph N/A   Overcast
1:52 AM 41.0 °F 32.2 °F 28.9 °F 62% 29.94 in 10.0 mi NW 18.4 mph 29.9 mph N/A   Overcast
2:52 AM 41.0 °F 31.6 °F 27.0 °F 57% 29.95 in 10.0 mi NW 20.7 mph - N/A   Overcast
3:52 AM 41.0 °F 31.6 °F 27.0 °F 57% 29.97 in 10.0 mi NNW 20.7 mph 29.9 mph N/A   Overcast
4:52 AM 41.0 °F 31.9 °F 27.0 °F 57% 29.99 in 10.0 mi NNW 19.6 mph 32.2 mph N/A   Overcast
5:03 AM 41.0 °F 32.5 °F 28.4 °F 61% 29.99 in 10.0 mi NW 17.3 mph - N/A   Mostly Cloudy
5:52 AM 39.0 °F 29.6 °F 27.0 °F 62% 30.01 in 10.0 mi NW 18.4 mph 24.2 mph N/A   Mostly Cloudy
6:52 AM 39.0 °F 30.3 °F 27.0 °F 62% 30.03 in 10.0 mi NW 16.1 mph - N/A   Scattered Clouds
7:52 AM 39.9 °F 30.8 °F 26.1 °F 58% 30.06 in 10.0 mi NW 18.4 mph 25.3 mph N/A   Partly Cloudy
8:52 AM 43.0 °F 34.5 °F 25.0 °F 49% 30.06 in 10.0 mi NW 19.6 mph 26.5 mph N/A   Partly Cloudy
9:52 AM 43.0 °F 34.8 °F 26.1 °F 51% 30.07 in 10.0 mi NW 18.4 mph - N/A   Scattered Clouds
10:52 AM 45.0 °F 37.6 °F 26.1 °F 48% 30.08 in 10.0 mi WNW 17.3 mph 24.2 mph N/A   Scattered Clouds
11:52 AM 48.0 °F - 28.0 °F 46% 30.08 in 10.0 mi WNW 16.1 mph - N/A   Scattered Clouds
12:27 PM 46.4 °F 40.7 °F 28.4 °F 50% 30.07 in 10.0 mi North 12.7 mph - N/A   Scattered Clouds
12:52 PM 46.0 °F 39.9 °F 28.9 °F 51% 30.06 in 10.0 mi North 13.8 mph - N/A   Scattered Clouds
1:52 PM 48.0 °F - 28.9 °F 48% 30.04 in 10.0 mi North 15.0 mph - N/A   Scattered Clouds
2:52 PM 48.0 °F - 30.9 °F 52% 30.04 in 10.0 mi North 12.7 mph - N/A   Scattered Clouds
3:52 PM 50.0 °F - 26.1 °F 39% 30.05 in 10.0 mi NW 20.7 mph 25.3 mph N/A   Partly Cloudy
4:52 PM 48.9 °F - 24.1 °F 38% 30.05 in 10.0 mi NW 19.6 mph 27.6 mph N/A   Scattered Clouds
5:52 PM 46.9 °F - 24.1 °F 41% 30.07 in 10.0 mi NW 13.8 mph 26.5 mph N/A   Scattered Clouds
6:52 PM 46.0 °F 39.9 °F 26.1 °F 46% 30.10 in 10.0 mi NW 13.8 mph - N/A   Scattered Clouds
7:52 PM 46.0 °F 40.2 °F 25.0 °F 44% 30.12 in 10.0 mi NW 12.7 mph - N/A   Mostly Cloudy
8:52 PM 45.0 °F 39.3 °F 28.9 °F 53% 30.12 in 10.0 mi WNW 11.5 mph - N/A   Mostly Cloudy
9:52 PM 44.1 °F 37.4 °F 28.0 °F 53% 30.11 in 10.0 mi NW 13.8 mph - N/A   Partly Cloudy
10:52 PM 42.1 °F 35.7 °F 28.9 °F 60% 30.12 in 10.0 mi WNW 11.5 mph - N/A   Partly Cloudy
11:52 PM 41.0 °F 34.7 °F 30.0 °F 65% 30.12 in 10.0 mi WNW 10.4 mph - N/A   Overcast